Flag for Sierra Leone Weather past 2 weeks in Freetown, Sierra Leone

Now
84 °F

Scattered clouds.


Feels Like: 91 °F
Forecast: 80 / 86 °F
Wind: 7 mph from Northwest

Location: Conakry / Gbessia

Current Time: Apr 27, 2015 at 10:42:01 AM

Latest Report: Apr 27, 2015 at 10:00 AM


Visibility: N/A

Pressure: 29.92 "Hg

Humidity: 70%

Dew point: 73 °F

Location of FreetownLocation

Historic Weather in Freetown — Graph

°F

Freetown temperature yesterday

Maximum temperature yesterday: 88 °F (at 1:00 PM)
Minimum temperature yesterday: 73 °F (at 11:00 PM)
Average temperature yesterday: 82 °F

Past Weeks' High & Low Weather Summary

 TemperatureHumidityPressure
High100 °F (Apr 13, 7:00 PM)100% (Apr 15, 11:00 AM)32.55 "Hg (Apr 15, 11:00 AM)
Low68 °F (Apr 15, 11:00 AM)26% (Apr 22, 5:00 PM)29.77 "Hg (Apr 15, 5:00 PM)
Average82 °F73%29.89 "Hg
* Reported Apr 12 9:00 AM — Apr 27 9:00 AM, Freetown, Weather by CustomWeather, © 2015

Note: Actual official high and low records may vary slightly from our data, if they occured in-between our weather recording intervals... More about our weather records

Advertising

Freetown weather history for previous 24 hours

 ConditionsComfort  
Time TempWeatherWind HumidityBarometerVisibility
9:00 AM
Mon, Apr 27
82 °FScattered clouds.5 mph79%29.92 "HgN/A
8:00 AM79 °FFog.5 mph94%29.92 "Hg1 mi
7:00 AM77 °FFog.5 mph94%29.89 "Hg1 mi
6:00 AM77 °FPassing clouds.5 mph94%29.89 "HgN/A
4:00 AM75 °FPassing clouds.7 mph94%29.92 "HgN/A
3:00 AM75 °FPassing clouds.9 mph100%29.92 "HgN/A
2:00 AM75 °FPassing clouds.5 mph89%29.95 "HgN/A
1:00 AM79 °FPassing clouds.No wind84%29.92 "HgN/A
12:00 AM77 °FPassing clouds.2 mph89%29.92 "HgN/A
11:00 PM
Sun, Apr 26
73 °FLight rain. Passing clouds.5 mph94%29.95 "Hg5 mi
10:00 PM77 °FLight rain. Passing clouds.9 mph83%29.83 "Hg4 mi
9:00 PM82 °FPartly cloudy.14 mph79%29.98 "HgN/A
8:00 PM82 °FPartly cloudy.12 mph79%29.92 "HgN/A
7:00 PM82 °FPartly sunny.12 mph74%29.89 "HgN/A
6:00 PM84 °FPassing clouds.16 mph70%29.83 "HgN/A
5:00 PM86 °FPassing clouds.14 mph66%29.83 "HgN/A
4:00 PM86 °FPassing clouds.16 mph62%29.83 "HgN/A
3:00 PM88 °FPassing clouds.16 mph59%29.89 "HgN/A
2:00 PM88 °FPassing clouds.12 mph62%29.92 "HgN/A
1:00 PM88 °FPassing clouds.12 mph62%29.92 "HgN/A
12:00 PM86 °FPassing clouds.9 mph66%29.95 "HgN/A
11:00 AM86 °FScattered clouds.12 mph66%29.95 "HgN/A
10:00 AM84 °FPassing clouds.9 mph70%29.92 "HgN/A
Weather by CustomWeather, © 2015

See weather overviewHow to use our weather pages